Hourly Data Report for November 16, 2017

All times are specified in Local Standard Time (LST). Add 1 hour to adjust for Daylight Saving Time where and when it is observed.

GREENWOOD A
NOVA SCOTIA

44°59'00.000" N
64°55'00.000" W
28.00 m
8202000
71397
YZX

Download Data

Hourly Data (November 2017)
Hourly Data Report for November 16, 2017
Temp Definition
°C
Dew Point Temp Definition
°C
Rel Hum Definition
%
Wind Dir Definition
10's deg

Wind Spd Definition
km/h
Visibility Definition
km
Stn Press Definition
kPa
Hmdx Definition


Wind Chill Definition


Weather Definition


TIME
00:00 0.6 -1.8 84 5 4 24.1 101.96     Mainly Clear
01:00 0.2 -1.5 88 3 7 24.1 101.90     Mainly Clear
02:00 -0.2 -1.8 89 15 4 24.1 101.94   -1 Mostly Cloudy
03:00 -0.4 -1.7 91 5 9 24.1 101.84   -4 Mainly Clear
04:00 -0.5 -1.8 91 6 7 24.1 101.84   -3 Mainly Clear
05:00 -0.6 -1.2 96 4 9 24.1 101.80   -4 Mainly Clear
06:00 -0.2 -2.0 88 5 7 24.1 101.76   -3 Mostly Cloudy
07:00 0.1 -1.9 86 5 15 24.1 101.76     Mostly Cloudy
08:00 0.6 -1.3 87 5 13 24.1 101.71     Mostly Cloudy
09:00 1.2 -1.0 85 4 15 24.1 101.65     Mostly Cloudy
10:00 2.8 0.2 83 5 13 24.1 101.59     Cloudy
11:00 6.4 3.2 80 13 15 24.1 101.47     Cloudy
12:00 7.9 4.0 76 11 11 24.1 101.36     Cloudy
13:00 8.5 3.7 72 12 7 19.3 101.29     Rain Showers
14:00 8.6 4.1 73 15 17 24.1 101.20     Rain Showers
15:00 8.1 4.2 76 14 24 24.1 101.09     Cloudy
16:00 7.8 4.5 80 14 28 24.1 101.04     Cloudy
17:00 7.6 4.7 82 9 15 24.1 100.93     Cloudy
18:00 7.9 5.9 87 11 20 24.1 100.78     Mostly Cloudy
19:00 8.4 6.4 87 10 19 24.1 100.63     Cloudy
20:00 9.4 7.3 87 11 19 19.3 100.54     Cloudy
21:00 10.5 7.7 83 13 26 24.1 100.42     Cloudy
22:00 10.3 8.1 86 13 32 16.1 100.23     Rain
23:00 10.6 8.4 86 12 24 19.3 100.05     Rain

Notes on Data Quality.

Legend

  • E = Estimated
  • M = Missing
  • NA = Not Available
  • ‡ = Partner data that is not subject to review by the National Climate Archives
Date modified: